Agadir Al Massira, Morocco

5:11 PM WEST on August 16, 2017 (GMT +0100)
Agadir Al Massira

Weather History for GMAD - January, 2013

Change the Weather History Date:

Saturday, January 12, 2013

  Actual Average Record
Temperature  
Mean Temperature 54 °F -  
Max Temperature 71 °F - - ()
Min Temperature 37 °F - - ()
Degree Days  
Heating Degree Days 11    
Growing Degree Days 4 (Base 50)    
Moisture  
Dew Point 41 °F    
Average Humidity 69    
Maximum Humidity 93    
Minimum Humidity 25    
Precipitation  
Precipitation 0.00 in - - ()
Sea Level Pressure  
Sea Level Pressure 30.18 in    
Wind  
Wind Speed 4 mph ()    
Max Wind Speed 13 mph    
Max Gust Speed -    
Visibility 6.0 miles    
Events      
T = Trace of Precipitation, MM = Missing Value Source: Averaged Metar Reports

Daily Weather History Graph

Daily Weather History Graph

Search for Another Location

Airport or City:

Trip Planner

Search our weather history database for the weather conditions in past years. The results will help you decide how hot, cold, wet, or windy it might be!

Date:

Astronomy

Jan. 12, 2013 Rise Set
Actual Time 7:35 AM WET 5:57 PM WET
Civil Twilight 7:09 AM WET 6:23 PM WET
Nautical Twilight 6:39 AM WET 6:52 PM WET
Astronomical Twilight 6:10 AM WET 7:21 PM WET
Moon 7:50 AM WET (1/12) 7:02 PM WET (1/12)
Length of Visible Light 11h 13m
Length of Day
10h 21m
New Moon, 1% of the Moon is Illuminated
Jan 12
New Moon
Jan 18
First Quarter
Jan 27
Full
Feb 3
Last Quarter
Feb 10
New

Hourly Weather History & Observations

Time (WET) Temp. Windchill Dew Point Humidity Pressure Visibility Wind Dir Wind Speed Gust Speed Precip Events Conditions
12:00 AM 49 °F - 46 °F 87% 30.21 in 6 mi East 2.3 mph - -  
12:00 AM 50.0 °F - 46.4 °F 87% 30.18 in - East 2.3 mph - N/A   Clear
1:00 AM 46.4 °F 42.9 °F 42.8 °F 87% 30.18 in - East 6.9 mph - N/A   Clear
2:00 AM 42.8 °F 41.1 °F 41.0 °F 93% 30.18 in - NE 3.5 mph - N/A   Clear
3:00 AM 40 °F - 38 °F 88% 30.20 in 6 mi East 4.6 mph - -  
3:00 AM 41.0 °F 38.0 °F 37.4 °F 87% 30.18 in - East 4.6 mph - N/A   Clear
4:00 AM 39.2 °F 35.9 °F 37.4 °F 93% 30.15 in - ENE 4.6 mph - N/A   Clear
5:00 AM 37.4 °F 33.8 °F 33.8 °F 87% 30.15 in - ENE 4.6 mph - N/A   Clear
6:00 AM 37 °F - 34 °F 86% 30.18 in 6 mi East 5.8 mph - -  
6:00 AM 37.4 °F 32.8 °F 33.8 °F 87% 30.15 in - East 5.8 mph - N/A   Clear
7:00 AM 37.4 °F 32.8 °F 33.8 °F 87% 30.18 in - ENE 5.8 mph - N/A   Clear
8:00 AM 39.2 °F 35.0 °F 35.6 °F 87% 30.18 in - East 5.8 mph - N/A   Clear
9:00 AM 46 °F - 36 °F 59% 30.22 in 6 mi ESE 6.9 mph - -  
9:00 AM 46.4 °F 42.9 °F 35.6 °F 66% 30.18 in - ESE 6.9 mph - N/A   Clear
10:00 AM 55.4 °F - 35.6 °F 47% 30.21 in - East 3.5 mph - N/A   Clear
11:00 AM 62.6 °F - 41.0 °F 45% 30.21 in - Calm Calm - N/A   Clear
12:00 PM 66 °F - 39 °F 26% 30.19 in 6 mi WNW 2.3 mph - -   Clear
12:00 PM 66.2 °F - 39.2 °F 37% 30.18 in - Variable 2.3 mph - N/A   Clear
1:00 PM 69.8 °F - 35.6 °F 28% 30.15 in - Calm Calm - N/A   Clear
2:00 PM 69.8 °F - 35.6 °F 28% 30.15 in - Variable 2.3 mph - N/A   Clear
3:00 PM 68 °F - 41 °F 25% 30.15 in 6 mi West 12.7 mph - -   Clear
3:00 PM 68.0 °F - 41.0 °F 37% 30.15 in - West 12.7 mph - N/A   Clear
4:00 PM 66.2 °F - 46.4 °F 49% 30.15 in - West 10.4 mph - N/A   Clear
5:00 PM 64.4 °F - 50.0 °F 59% 30.15 in - WSW 9.2 mph - N/A   Clear
6:00 PM 60 °F - 49 °F 58% 30.17 in 6 mi SW 5.8 mph - -   Clear
6:00 PM 60.8 °F - 50.0 °F 68% 30.15 in - SW 5.8 mph - N/A   Clear
7:00 PM 57.2 °F - 51.8 °F 82% 30.15 in - SSW 5.8 mph - N/A   Clear
8:00 PM 55.4 °F - 50.0 °F 82% 30.18 in - South 6.9 mph - N/A   Clear
9:00 PM 52 °F - 49 °F 86% 30.20 in 6 mi South 5.8 mph - -   Clear
9:00 PM 51.8 °F - 48.2 °F 88% 30.18 in - South 5.8 mph - N/A   Clear
10:00 PM 46.4 °F 45.2 °F 44.6 °F 93% 30.18 in - ENE 3.5 mph - N/A   Clear
11:00 PM 46.4 °F 44.3 °F 44.6 °F 93% 30.21 in - ENE 4.6 mph - N/A   Clear